Location: Ammerl�gen
(47.2167°N, 9.6000°E)
Time: 03:00:23
(UTC+00:00)

Envisat - Pass Details

Date: 02 October 2021
Orbit: 764 x 766 km, 98.2° (Epoch: 26 October)

Event Time Altitude Azimuth Distance (km) Brightness Sun altitude
Rises 02:57:14 0° 33° (NNE) 3,241 7.1 -24.8°
Reaches altitude 10° 03:01:31 10° 68° (ENE) 2,307 6.6 -24.2°
Maximum altitude 03:02:59 11° 85° (E) 2,224 6.3 -23.9°
Drops below altitude 10° 03:04:28 10° 102° (ESE) 2,302 6.2 -23.7°
Sets 03:08:42 0° 137° (SE) 3,219 6.5 -23.0°
